Location: Dallas(GA)
(33.9240°N, 84.8410°W)
Time: 21:59:40
(UTC-04:00)

N. Korean satellite - Pass Details

Date: 07 October 2020
Orbit: 453 x 505 km, 97.2° (Epoch: 25 October)

Event Time Altitude Azimuth Distance (km) Brightness Sun altitude
Rises 07:05:37 0° 11° (NNE) 2,526 10.3 -7.7°
Reaches altitude 10° 07:07:41 10° 12° (NNE) 1,635 9.4 -7.2°
Maximum altitude 07:11:12 86° 103° (ESE) 470 6.5 -6.5°
Drops below altitude 10° 07:14:38 10° 191° (S) 1,597 9.1 -5.8°
Sets 07:16:38 0° 191° (SSW) 2,460 10.1 -5.4°
